Wind_Speed
14 20 25 25 23 23 21 20 19 18 16 15 14 13 11 8 8 9 8 7 7 7 7 7 6 4 4 4 4 4 5 4 4 5 4 4 4 3 3 4 4 5 6 5 3 4 4 2 2 4 6 7 8 9 10 9 10 11 14 17 20 21 22 22 22 21 21 20 19 20 22 20 17 17 19 17 15 15 15 16 15 15 14 13 13
14 20 25 26 26 25 23 22 21 20 19 17 16 14 13 10 9 9 8 8 9 8 7 7 7 6 5 5 5 6 6 5 4 4 4 4 4 4 4 3 3 4 5 5 3 3 2 1 1 2 2 4 5 8 9 8 8 9 11 13 16 18 18 19 20 20 20 19 18 19 21 21 17 15 18 18 16 15 16 17 16 15 15 14 13
16 19 24 27 28 27 26 25 23 22 21 19 18 16 15 13 12 10 9 9 10 9 8 8 8 8 7 7 7 7 7 6 6 5 5 5 5 4 3 3 4 3 4 4 3 2 2 2 2 2 2 3 3 3 5 6 5 5 7 8 10 12 14 17 18 17 17 17 16 15 15 16 15 15 15 14 15 15 15 16 15 14 14 14 14
17 18 22 27 29 30 29 28 26 25 24 22 21 19 18 16 13 11 10 10 10 10 10 9 8 8 9 9 9 8 7 6 7 7 7 6 5 5 5 5 5 6 6 5 4 3 3 4 3 3 3 3 2 2 2 3 4 3 4 4 5 6 9 12 14 14 15 15 15 13 11 9 10 12 12 13 16 14 14 14 14 14 14 14 14
16 18 23 29 32 33 32 31 29 28 27 25 24 22 20 17 15 13 11 11 11 11 10 10 9 8 9 10 10 9 7 7 7 7 7 6 5 5 6 6 6 7 7 6 5 4 4 4 4 3 3 3 3 2 2 2 2 2 2 3 4 4 4 5 8 10 11 12 12 11 9 8 9 11 11 14 17 15 15 14 12 12 12 13 14
16 18 22 28 33 34 34 34 33 31 28 27 25 24 22 18 16 15 13 12 12 11 10 11 10 8 9 10 10 10 8 7 7 6 6 6 5 5 6 6 6 6 7 7 6 5 4 4 4 4 3 3 4 3 2 2 2 1 2 2 3 4 3 2 4 6 7 8 11 11 9 9 9 11 10 11 13 15 19 17 13 12 9 9 11
16 18 20 23 28 32 36 37 36 33 30 28 27 26 24 21 19 17 15 14 14 12 11 12 11 9 8 9 10 10 9 8 8 7 6 5 5 5 6 6 6 7 7 6 6 5 4 4 4 4 4 3 4 3 2 2 2 2 2 2 1 2 2 3 3 4 5 7 9 10 11 10 8 8 8 8 8 11 15 15 15 15 13 12 12
12 15 18 21 23 28 34 38 38 35 32 31 30 28 26 25 22 19 17 15 14 13 12 12 12 11 10 11 12 10 8 9 8 7 7 5 4 4 5 5 6 6 6 6 6 6 6 6 6 6 5 5 5 4 2 2 1 1 2 1 1 1 1 2 3 2 3 6 7 7 8 8 7 7 8 9 9 8 9 11 11 13 15 16 15
12 14 16 18 21 25 30 35 38 36 35 33 31 30 29 28 24 21 19 17 15 14 13 13 13 12 12 13 14 12 10 9 8 7 6 5 4 4 4 4 5 5 5 5 6 6 6 6 6 6 6 6 5 4 3 3 3 2 1 1 1 1 1 1 2 2 2 3 3 3 4 4 6 7 7 7 8 8 8 8 9 10 13 14 14
12 15 17 18 19 22 24 29 34 36 36 35 34 32 31 30 27 24 21 18 17 16 15 14 15 15 14 15 16 15 13 11 9 8 7 6 5 4 3 4 4 4 4 4 4 4 4 4 4 4 5 5 4 4 4 4 4 4 4 3 2 1 1 1 2 2 3 3 2 3 3 3 4 5 6 5 6 8 8 8 9 11 13 13 15
11 13 16 17 18 19 21 24 29 34 36 36 36 35 34 32 29 26 23 20 19 18 17 16 16 17 16 16 16 16 15 13 11 9 8 7 6 5 4 4 4 3 3 3 3 3 2 2 2 3 4 4 5 4 4 5 5 5 5 5 5 4 3 2 1 2 3 4 3 4 4 5 5 5 6 5 5 6 8 9 9 9 12 13 16
11 11 11 12 15 18 21 22 24 30 34 36 38 37 35 33 30 28 25 23 21 20 19 18 18 19 18 17 17 16 15 14 12 10 9 7 7 6 6 6 5 4 4 3 3 2 1 0 1 2 3 4 4 4 3 4 4 5 5 6 7 7 6 6 5 4 3 3 3 3 4 5 6 7 7 7 6 6 7 8 8 9 10 11 12
9 8 7 6 10 15 18 20 21 25 29 33 37 38 37 34 32 30 27 25 24 22 21 20 19 19 19 19 18 18 16 14 12 11 9 8 8 8 8 7 7 6 5 4 4 3 2 2 2 2 2 2 2 2 2 2 3 4 4 5 6 7 7 7 7 6 5 5 4 3 3 4 6 7 8 8 8 8 7 8 8 9 10 11 11
7 6 4 1 6 10 13 16 18 21 24 29 34 37 37 35 34 31 29 27 26 24 23 22 20 19 20 20 20 19 17 16 14 12 10 9 9 9 9 8 8 7 6 6 5 4 4 4 3 3 3 3 3 2 1 2 2 3 4 5 5 6 6 6 6 6 6 6 5 5 4 4 6 7 8 8 9 9 7 8 9 9 11 12 11
8 6 5 2 3 7 10 12 14 17 21 26 31 34 35 35 34 32 31 29 28 26 24 23 22 20 20 21 21 20 19 17 15 13 12 11 10 10 10 9 9 8 8 8 7 6 6 5 5 5 5 5 4 3 2 1 2 2 3 4 5 5 5 6 6 5 5 5 5 4 4 5 6 6 6 7 8 10 9 9 10 9 10 10 10
10 8 6 4 3 5 7 8 8 10 15 19 24 28 31 32 33 32 32 30 29 27 25 24 23 22 22 21 22 21 20 19 17 15 14 12 11 11 11 10 10 9 10 10 9 8 7 7 7 7 7 6 6 5 3 2 1 1 2 3 4 5 6 7 7 7 6 5 5 4 4 5 5 5 6 6 7 8 10 10 11 10 9 10 9
12 11 8 6 5 5 5 5 5 5 7 10 14 19 22 25 27 30 31 31 30 28 27 26 25 25 24 22 21 22 21 20 19 18 16 14 13 12 12 12 11 11 12 11 10 10 9 9 9 9 9 8 8 7 5 4 3 3 3 3 4 5 6 7 7 8 8 7 7 6 5 5 6 5 6 6 7 7 7 8 9 9 9 10 10
13 13 11 9 8 7 6 5 4 5 5 5 7 10 13 16 19 24 28 30 29 28 28 28 27 27 26 24 23 22 21 21 21 20 18 17 16 15 14 14 13 13 14 13 12 11 11 11 11 11 11 10 9 8 8 7 5 5 5 5 4 4 5 6 6 7 7 7 7 7 7 7 7 7 7 7 7 8 8 7 7 8 9 10 10
14 15 14 12 10 9 9 8 7 6 6 6 6 6 7 9 13 18 23 27 28 30 31 30 30 30 29 28 26 24 23 22 21 21 21 20 19 18 17 17 15 15 16 16 15 14 13 12 13 13 12 12 12 11 10 8 7 7 7 7 7 6 6 6 7 7 7 7 7 8 7 7 9 10 10 10 10 9 9 8 8 8 9 11 11
13 15 15 14 13 11 11 11 10 10 10 9 8 7 7 7 8 11 16 21 24 28 31 32 32 32 31 30 28 27 25 24 23 22 21 21 21 20 20 19 18 17 17 18 17 17 16 15 14 15 15 14 14 13 12 10 10 9 9 9 10 8 7 8 8 9 9 8 8 10 9 9 11 11 10 11 12 12 11 10 9 9 10 12 13
13 15 16 17 17 15 14 13 12 11 11 10 10 9 10 8 8 9 11 14 16 20 25 28 31 32 33 32 31 30 28 27 26 25 23 22 21 21 21 21 20 20 19 19 19 18 18 17 16 16 16 16 16 15 14 13 12 12 11 11 11 10 8 8 9 9 9 9 9 9 9 10 13 12 11 11 10 11 12 11 10 9 10 11 13
13 15 16 17 18 18 18 17 15 14 12 10 9 7 7 6 7 8 10 12 14 16 18 20 23 26 29 31 32 32 32 31 30 28 26 25 24 23 22 22 21 21 20 20 20 20 19 19 18 18 17 18 18 18 17 16 15 15 14 13 12 11 10 10 10 9 9 11 11 9 8 11 14 14 13 11 8 9 10 9 9 10 10 11 12
13 14 15 16 17 17 19 19 18 17 15 13 11 9 7 6 4 3 6 8 10 12 14 15 17 18 20 24 26 28 31 32 32 32 30 29 28 27 25 24 23 23 22 21 21 21 21 20 20 19 20 20 20 20 19 18 17 17 16 16 14 13 13 13 12 11 10 11 13 12 12 13 15 15 15 13 11 10 9 9 10 11 12 13 14
11 12 13 14 14 15 16 17 17 17 16 15 13 11 9 8 7 4 3 4 4 6 8 11 13 13 13 16 19 21 24 26 27 28 29 30 30 30 30 29 27 26 26 25 24 23 22 22 22 22 22 22 22 22 21 20 19 19 18 17 16 15 14 14 13 13 13 13 14 14 14 15 16 17 17 15 12 11 11 11 11 12 13 14 15
9 10 11 12 12 13 13 14 14 14 15 15 14 13 11 10 8 6 3 2 3 3 4 7 9 10 10 12 16 18 18 20 23 25 27 29 29 30 31 31 29 28 28 28 27 25 23 22 23 24 24 25 25 24 23 22 21 20 19 18 17 16 16 16 15 15 15 15 15 16 16 17 18 18 17 16 14 14 15 14 13 13 12 13 14
8 8 9 10 11 11 12 12 11 12 12 12 12 12 11 9 8 7 6 4 2 1 1 3 4 6 7 10 13 15 15 17 21 23 25 25 24 24 26 26 26 25 26 28 29 27 26 25 24 25 26 26 27 27 26 24 24 23 21 20 20 18 18 17 17 16 16 17 17 17 18 19 19 20 20 19 18 18 18 17 17 16 15 15 16
7 7 8 9 9 9 10 9 10 9 9 9 9 9 8 7 7 5 4 4 3 3 2 1 1 3 4 6 10 12 13 16 18 18 18 18 17 18 19 20 20 19 21 26 28 27 27 28 28 27 27 27 27 27 25 24 25 25 25 24 23 22 21 20 19 18 18 18 19 19 19 20 20 21 21 21 21 21 21 20 20 19 18 17 17
6 6 7 7 8 8 8 8 8 8 7 7 7 7 6 6 6 6 5 5 5 5 5 4 3 3 4 4 6 7 9 11 13 12 14 14 14 15 16 17 17 16 18 22 24 24 25 28 30 30 29 29 28 27 25 25 26 27 27 26 25 24 23 22 22 21 20 20 20 20 21 21 22 22 22 22 22 22 22 22 21 20 19 18 18
7 6 6 6 6 6 7 7 7 6 7 7 6 7 8 8 8 8 8 8 8 7 7 7 7 7 7 7 7 8 8 9 9 8 9 11 11 12 13 15 16 17 18 20 20 22 24 26 28 30 31 33 33 33 31 31 30 30 28 27 26 25 24 23 22 22 21 21 21 22 23 23 23 23 23 23 24 23 23 23 22 21 21 20 19
6 5 5 4 4 5 6 7 7 6 7 7 7 8 9 9 10 12 12 11 11 11 11 10 10 10 11 11 11 11 11 11 11 11 10 10 11 12 12 12 13 15 16 17 17 17 19 22 25 28 32 35 36 36 35 33 31 30 28 28 27 26 25 24 23 22 22 22 22 22 24 25 26 26 25 25 25 24 24 24 24 23 23 22 22
6 5 4 4 4 4 5 6 7 8 8 8 8 9 10 11 12 13 14 14 14 14 14 13 13 13 13 13 13 13 14 14 14 15 14 14 15 15 14 14 14 14 15 16 17 16 17 19 22 26 32 36 37 37 36 34 33 31 29 28 27 26 25 24 23 22 21 21 22 23 24 26 28 28 28 28 27 27 26 25 25 25 25 25 25
5 4 3 3 4 4 5 5 6 7 8 8 9 9 10 12 13 14 14 15 15 16 16 16 16 16 15 14 14 14 14 15 15 16 16 16 17 18 18 17 17 17 15 16 18 18 17 17 19 24 29 34 37 37 35 33 32 31 30 28 26 25 24 23 21 21 20 20 22 23 25 27 28 28 28 28 29 29 29 29 28 28 27 27 27
4 3 3 3 3 4 5 6 7 7 7 9 10 11 12 13 14 15 15 16 15 16 16 16 17 17 16 17 16 15 14 14 15 16 17 17 18 19 19 19 19 20 18 16 16 18 18 17 19 24 28 32 35 35 34 32 31 30 28 26 25 24 22 20 20 20 21 22 23 25 26 27 28 29 29 29 29 29 29 30 31 31 31 30 29
3 2 2 3 3 4 5 6 7 8 10 12 12 13 14 15 16 16 16 17 16 15 15 17 17 17 17 17 17 16 16 16 17 17 18 19 19 19 19 19 19 20 21 20 18 19 18 17 20 25 29 32 34 34 34 32 30 28 26 24 24 23 20 19 20 21 22 24 25 26 26 27 27 28 29 29 29 29 29 30 30 30 30 29 30
1 1 2 3 4 5 5 6 7 9 11 12 12 13 15 16 17 18 19 19 18 17 17 18 19 19 19 19 18 17 17 18 19 19 20 20 20 20 20 20 19 19 19 18 16 18 19 19 21 26 31 34 35 35 34 32 29 27 25 23 22 21 19 20 22 23 24 25 26 26 27 27 28 28 29 29 29 29 30 31 31 31 31 31 30
2 3 4 5 6 6 7 8 9 9 10 10 11 12 14 16 18 20 20 20 20 20 21 21 21 21 22 21 21 20 19 18 18 18 19 20 20 21 20 20 21 19 17 15 14 16 18 21 22 26 32 36 36 34 33 30 28 26 22 20 19 19 19 20 22 24 26 26 26 27 26 26 28 28 28 30 30 29 29 31 32 32 32 32 31
4 5 5 6 7 7 8 9 10 10 10 11 12 12 13 15 17 19 20 20 20 20 21 21 21 21 23 24 24 23 20 18 17 17 18 19 20 21 21 20 21 19 16 16 15 15 18 22 25 29 34 37 36 34 32 29 26 23 18 15 15 15 16 19 22 23 25 26 27 28 27 27 28 28 28 30 30 28 29 30 30 31 31 30 30
6 6 6 7 8 9 10 11 12 13 13 13 13 13 14 15 15 17 18 18 19 20 22 21 20 20 22 24 24 23 21 19 18 17 17 18 19 21 20 19 19 17 16 16 16 16 19 23 25 30 36 38 36 33 30 25 22 19 17 14 13 12 13 17 19 20 22 23 26 28 30 30 29 28 28 28 27 26 28 27 26 25 26 26 26
7 8 8 9 10 12 13 13 14 14 15 14 15 15 15 16 16 17 17 17 20 22 22 22 22 23 24 24 24 23 21 20 19 19 18 18 19 20 19 17 16 16 17 18 17 18 21 23 26 31 35 36 33 29 25 21 19 18 16 15 15 15 16 17 18 18 19 21 24 27 29 29 29 29 29 28 26 26 26 25 23 22 23 24 23
10 10 10 12 13 13 14 14 14 16 16 17 17 17 17 18 18 18 19 20 22 23 22 23 24 24 24 24 23 22 21 21 20 19 18 18 18 19 18 17 16 16 17 18 19 19 21 24 27 31 33 30 27 24 21 18 17 16 16 16 16 17 18 19 19 19 20 22 23 22 21 22 26 29 30 29 27 27 27 26 24 23 24 25 23
12 14 15 15 15 15 16 16 16 17 17 18 18 18 18 19 19 20 21 24 25 25 25 25 24 23 22 22 21 20 20 20 20 19 19 19 18 18 17 17 19 19 18 19 20 21 22 25 28 30 29 25 21 18 17 15 15 15 16 16 16 17 18 19 20 22 22 22 22 20 18 20 25 29 30 29 29 28 28 28 28 27 28 28 28
17 18 19 19 18 18 18 18 17 17 18 18 18 19 19 19 20 21 24 26 26 26 27 27 24 22 21 21 21 20 20 20 19 18 19 19 18 17 17 19 21 20 19 20 21 21 22 27 29 27 24 21 17 15 14 14 14 15 15 15 15 16 18 19 22 24 24 23 23 23 22 24 27 30 30 30 30 28 28 29 30 30 31 30 30
19 20 20 20 20 20 19 19 19 19 19 19 20 21 21 21 22 24 27 28 28 29 29 27 23 22 21 22 22 21 20 19 18 19 19 19 18 18 19 20 20 18 18 20 20 20 23 26 26 23 20 17 15 14 13 12 12 13 13 14 15 16 18 20 21 23 25 25 26 25 25 26 28 29 29 29 29 27 27 28 28 27 27 27 26
19 19 18 19 20 20 20 20 20 20 20 21 21 22 22 22 23 25 27 28 28 28 26 24 23 23 23 23 22 21 21 20 20 21 19 18 19 19 20 20 18 17 18 19 21 24 27 26 23 20 17 15 13 11 10 9 10 10 12 13 15 16 18 19 21 23 25 26 26 25 25 27 28 28 29 29 28 26 25 24 24 23 23 24 24
20 19 18 18 20 20 20 20 20 20 22 22 22 22 23 23 23 24 25 25 25 24 24 23 23 23 23 23 22 22 21 20 20 20 18 18 19 20 20 20 18 18 19 24 28 28 25 22 19 16 13 10 8 7 6 7 8 9 10 12 13 15 17 19 20 23 25 26 26 26 27 29 29 29 29 27 25 23 22 22 22 21 20 21 21
21 20 19 19 20 20 20 20 20 21 21 22 21 22 23 23 23 24 24 24 24 24 24 24 23 23 23 22 22 22 21 20 19 18 18 19 20 19 19 20 19 21 26 29 28 24 21 18 15 13 10 8 6 3 2 4 5 7 10 12 14 15 18 20 23 25 27 28 28 30 31 31 29 27 25 23 20 19 20 20 19 18 17 17 17
22 21 21 21 21 20 19 20 21 21 21 21 21 21 22 23 23 23 23 23 23 24 24 24 24 23 22 21 21 21 20 19 20 20 19 19 19 18 19 21 24 28 29 27 23 20 17 14 12 10 8 6 4 3 1 2 4 7 9 12 15 17 20 22 24 25 25 26 29 30 29 26 23 20 20 19 19 18 18 17 16 16 16 16 16
22 21 21 21 21 21 21 21 22 22 21 20 20 20 21 22 21 21 21 22 23 23 24 24 23 23 22 21 21 21 21 22 22 20 18 16 17 21 25 27 28 26 24 22 20 18 15 13 12 10 8 7 6 4 1 2 5 8 10 12 15 17 20 21 23 24 25 27 28 25 21 17 16 15 16 16 16 16 16 16 16 16 16 16 16
22 21 21 21 21 22 22 22 22 21 20 20 20 20 20 19 19 20 21 22 22 22 21 20 21 22 23 22 21 21 21 20 18 17 19 22 25 26 26 25 21 19 18 19 19 18 17 15 14 12 10 8 6 4 4 6 8 10 12 14 16 18 20 21 23 24 26 27 24 18 14 14 14 14 14 15 16 16 16 17 17 17 17 17 17
23 22 21 21 21 21 20 21 21 20 19 19 18 18 18 17 18 19 19 18 16 15 14 14 17 19 21 20 19 19 19 22 27 30 32 31 28 25 23 23 21 20 20 20 20 20 19 17 15 13 11 9 7 7 8 9 11 12 14 15 17 19 20 21 22 23 23 22 18 13 13 13 14 14 15 16 16 17 18 18 18 17 17 17 18
23 22 21 21 21 20 19 20 20 19 19 18 17 17 19 17 15 14 11 9 9 10 10 10 12 14 16 19 22 26 29 32 33 32 31 30 29 26 24 25 24 23 22 21 20 19 17 15 13 12 11 9 9 9 9 11 12 14 15 16 17 18 18 19 20 21 20 16 12 12 13 13 13 14 15 16 17 18 18 19 19 18 17 17 18
Wind_Direction
182 200 203 198 202 201 198 199 198 197 197 200 207 211 211 217 226 231 224 198 183 184 184 182 180 184 177 170 157 143 145 142 133 128 135 150 150 147 154 170 192 211 212 202 205 221 222 226 235 234 234 228 227 231 233 232 228 222 221 226 228 226 224 225 226 228 232 236 238 242 245 243 239 241 239 233 230 231 231 231 230 230 231 233 235
189 207 209 202 205 207 203 204 204 201 202 204 209 214 214 216 223 229 225 199 180 176 180 182 178 177 174 165 152 144 145 138 138 144 139 136 136 132 131 142 162 189 191 177 177 201 206 197 186 208 229 228 229 233 234 235 231 221 222 229 233 231 229 228 228 230 234 239 241 245 252 250 241 238 240 238 235 233 234 236 234 234 233 230 232
195 207 211 207 208 211 209 209 209 207 207 208 211 215 216 217 220 223 221 202 183 175 178 186 182 174 168 163 153 151 157 153 149 144 129 120 117 106 101 113 117 122 135 136 141 160 152 136 134 149 171 176 187 208 220 223 220 214 215 223 232 234 232 229 229 231 232 233 238 247 255 256 250 244 240 241 241 235 235 239 238 238 236 232 232
202 206 213 214 212 213 213 212 212 212 211 211 212 215 216 217 219 219 214 201 188 180 182 187 184 172 165 164 158 157 161 151 140 132 122 116 105 91 82 91 105 110 113 118 131 142 134 129 127 127 142 148 143 157 180 198 206 199 184 192 214 226 230 228 227 231 231 230 236 243 245 248 254 252 241 237 241 240 241 243 241 241 238 234 234
213 208 215 222 220 218 216 215 215 215 215 214 214 216 217 216 217 218 212 200 191 186 186 185 183 176 169 167 161 157 154 143 136 130 123 115 103 90 77 77 92 108 117 123 127 125 123 128 128 122 128 128 117 130 154 162 188 203 180 186 206 195 192 211 218 223 226 228 228 225 225 229 242 251 247 246 247 243 242 241 238 241 239 238 240
228 217 218 226 227 224 220 218 217 217 217 218 218 218 219 218 217 218 211 200 194 191 189 186 183 184 178 171 165 159 154 150 150 144 132 124 113 98 83 79 82 94 112 124 125 122 119 120 119 115 122 131 128 131 144 142 140 163 163 196 228 196 171 186 210 217 223 227 219 212 217 223 232 240 244 257 254 245 247 242 230 231 232 234 239
236 230 224 224 225 226 225 222 219 218 219 220 222 221 219 219 218 217 212 203 197 191 189 187 183 183 180 173 168 163 160 166 168 159 148 141 127 107 91 85 82 86 99 110 117 119 113 111 115 115 114 118 125 126 133 148 158 189 177 167 212 186 186 215 215 215 237 245 225 213 221 222 221 225 228 246 253 252 254 245 238 241 238 234 234
243 238 232 226 223 226 229 228 223 219 220 222 223 223 221 220 219 218 214 206 201 195 191 189 182 178 176 171 169 167 168 180 181 169 161 158 142 120 104 95 90 93 99 102 106 107 107 107 104 105 101 91 92 98 101 105 118 205 205 190 203 177 163 203 209 209 236 251 235 218 228 231 227 228 229 236 244 255 254 241 244 248 240 240 242
261 253 244 235 227 225 229 234 231 223 221 224 225 224 223 222 219 218 215 209 205 199 194 191 183 179 179 175 174 175 177 184 187 184 181 174 164 150 129 113 104 106 108 109 109 106 104 102 97 95 91 85 82 76 73 78 70 66 79 83 171 216 228 185 189 201 215 238 238 233 243 240 235 240 242 244 250 260 259 247 249 246 239 242 245
275 266 258 247 233 226 225 231 234 229 223 224 227 226 225 224 220 217 215 212 210 204 198 194 186 181 185 185 182 184 188 190 191 196 199 192 188 183 160 141 129 124 122 120 117 115 104 92 83 76 70 71 67 51 49 56 55 54 54 50 59 58 292 239 210 221 239 245 236 239 250 242 239 248 259 271 266 264 266 267 267 261 258 258 252
294 281 271 257 239 226 218 217 228 232 226 223 226 227 226 225 221 217 215 213 214 209 201 197 191 187 189 192 190 192 195 197 200 205 209 207 209 208 196 180 166 156 153 144 139 137 119 85 61 46 43 46 48 43 37 37 40 44 47 46 42 41 36 10 307 275 271 267 243 232 238 240 237 235 244 260 268 266 269 272 274 273 272 272 266
308 297 286 264 234 218 211 208 219 230 227 222 224 226 226 224 221 218 215 214 216 214 206 200 197 193 194 196 196 199 201 202 207 214 217 219 220 219 210 202 198 194 187 182 183 180 177 104 10 12 15 25 36 42 41 38 41 42 44 46 42 35 34 31 22 10 346 319 288 259 256 259 254 245 244 251 253 253 263 270 272 276 277 277 276
324 312 305 267 220 207 206 205 214 228 229 223 224 226 225 223 221 219 217 215 217 216 210 206 201 197 199 200 200 203 206 207 210 217 226 227 223 225 222 213 212 215 214 213 212 211 225 255 289 308 328 351 3 23 43 47 49 49 46 42 39 32 25 23 21 18 14 7 358 334 302 283 277 274 269 267 262 255 258 271 275 276 277 276 277
349 345 346 283 201 198 201 198 204 221 226 222 223 226 225 222 220 220 220 219 219 219 215 211 207 202 202 203 204 206 208 210 211 214 225 226 223 232 232 217 215 223 226 228 231 228 232 245 259 275 291 306 319 334 7 42 49 42 36 34 31 23 17 15 11 8 5 1 358 352 336 314 305 305 302 295 288 278 265 264 272 278 279 279 279
15 22 26 41 168 181 187 186 196 215 222 221 223 225 224 222 220 219 220 221 221 221 220 217 214 208 206 206 208 209 211 213 214 214 222 226 228 239 240 225 219 220 221 228 237 238 241 248 255 266 276 284 294 306 324 360 50 38 15 13 14 8 3 1 358 357 354 351 349 345 334 322 315 314 313 308 303 301 293 282 281 286 289 287 282
28 37 44 54 118 150 163 173 190 214 223 224 225 227 227 225 223 221 221 223 224 224 223 223 220 216 213 210 211 213 214 215 217 219 223 226 231 241 245 239 228 218 222 233 240 241 245 249 254 262 269 277 284 293 307 318 333 348 338 340 348 348 347 347 345 343 343 341 341 337 325 317 312 307 304 299 296 301 304 301 297 293 290 290 291
35 43 50 61 86 108 126 147 162 186 206 217 225 231 234 232 229 226 224 225 228 227 227 227 226 224 221 217 215 216 217 219 222 225 227 229 235 241 245 247 239 227 231 242 244 243 246 248 251 258 265 272 279 286 294 304 312 310 303 310 321 327 333 337 336 336 339 341 343 345 340 332 326 321 313 306 301 299 296 297 299 296 288 286 291
44 47 49 58 76 90 100 114 133 153 167 185 206 222 232 234 233 232 230 230 232 232 231 231 230 230 229 225 222 221 222 223 226 230 232 233 237 241 244 249 248 240 241 247 247 245 247 249 252 257 261 267 272 277 283 291 298 300 295 293 295 304 312 319 325 329 335 339 343 347 348 346 342 341 336 330 326 319 312 301 291 288 283 277 276
49 52 51 57 72 93 106 110 117 127 136 150 172 194 211 222 228 232 233 234 234 235 236 235 234 235 234 232 230 228 227 228 229 233 236 237 239 242 245 249 251 249 247 248 249 249 249 249 254 259 261 264 267 268 273 280 285 290 293 292 291 296 300 307 318 324 329 335 338 341 347 346 344 346 344 340 337 331 327 318 299 287 281 275 271
50 56 59 62 69 86 102 109 115 122 131 139 147 158 173 194 212 225 235 238 238 239 241 241 239 238 240 239 237 236 234 234 234 235 238 242 243 245 247 250 252 252 250 250 251 252 254 254 255 259 262 264 265 266 267 270 274 281 286 287 292 300 303 306 313 320 325 329 334 339 340 338 341 346 341 334 334 330 329 327 313 301 292 288 284
54 59 61 63 65 71 80 87 98 109 120 129 137 151 166 177 183 194 215 231 238 243 248 250 247 245 245 245 244 243 242 241 240 240 241 244 247 248 250 251 253 254 252 252 252 252 255 256 256 258 261 263 265 266 267 268 269 274 276 278 286 294 295 297 306 314 319 322 330 337 332 328 334 338 335 329 322 317 320 322 312 301 293 289 288
62 63 63 64 64 67 71 75 83 88 92 101 108 118 141 163 176 185 197 209 219 228 237 245 250 251 250 249 249 248 247 247 247 246 247 248 249 250 251 251 253 254 254 254 255 254 254 254 255 257 258 261 264 265 266 267 267 270 274 275 278 280 278 281 291 298 303 310 320 327 321 318 324 329 331 328 311 301 303 297 286 284 279 276 277
73 71 69 69 68 68 70 72 76 80 82 87 89 92 104 114 117 156 196 206 218 224 222 226 237 247 249 250 252 252 251 252 252 252 252 252 252 253 254 255 255 255 255 255 255 256 256 254 254 256 257 259 261 262 263 265 265 268 273 275 276 275 273 277 282 284 287 296 307 314 313 314 320 324 325 324 315 306 299 283 276 277 277 277 276
81 78 75 74 73 72 70 69 71 74 77 79 79 84 95 100 98 107 173 194 212 235 239 233 234 242 245 245 249 252 252 253 255 256 257 256 256 256 257 258 259 258 257 256 256 256 256 255 254 254 255 258 259 260 262 263 264 266 269 272 275 275 275 276 279 281 285 291 297 304 306 309 314 317 319 320 314 304 297 290 284 281 281 283 282
90 84 79 76 73 71 70 70 69 70 73 73 72 73 76 80 82 80 82 121 172 209 238 239 238 243 245 243 244 248 250 250 250 252 254 256 257 258 260 261 261 260 259 258 255 252 249 249 251 252 253 257 260 260 262 263 264 265 266 269 273 275 274 275 276 279 284 289 293 298 302 305 309 312 314 314 308 302 301 297 291 284 277 275 275
102 92 84 78 73 70 68 68 67 66 67 67 66 65 66 68 70 69 63 58 66 129 201 222 238 246 247 248 247 246 250 252 250 249 249 251 253 256 257 259 260 259 258 257 255 252 249 245 243 245 248 253 257 259 260 260 261 264 266 269 272 273 273 272 273 277 281 285 290 295 299 303 307 310 311 311 308 306 305 302 298 293 286 279 274
109 97 90 82 75 70 67 65 64 62 61 62 61 57 56 56 50 43 39 34 23 8 360 336 290 264 252 254 254 249 250 252 251 249 248 248 249 249 249 251 252 248 247 253 256 256 254 249 244 243 243 247 251 252 252 253 257 262 265 266 268 269 270 269 270 274 279 284 289 294 298 303 307 309 310 311 310 309 307 304 302 299 295 289 283
122 105 92 82 74 68 63 59 57 53 50 51 51 41 31 27 21 8 353 348 345 342 338 332 315 288 265 262 264 258 253 251 250 248 249 248 247 246 245 243 241 238 243 254 258 255 253 250 247 243 241 242 242 240 242 250 257 261 261 262 263 263 264 265 267 270 275 280 286 290 295 300 305 308 309 308 308 307 305 302 299 295 290 285 281
132 115 97 81 70 59 50 45 45 42 36 31 29 17 6 358 352 345 339 336 335 333 329 323 314 301 285 274 269 265 263 265 268 268 265 259 253 248 243 240 240 245 252 255 251 247 250 249 244 242 241 240 238 238 244 250 254 255 255 255 256 258 259 261 264 268 273 277 281 286 292 296 300 303 305 304 304 303 302 299 297 293 287 282 278
130 113 100 83 64 51 41 27 12 6 5 4 2 0 356 349 341 337 336 334 330 330 328 323 318 310 301 294 285 277 271 268 269 271 272 272 270 265 259 253 249 248 250 249 243 238 242 246 244 242 241 238 237 242 247 246 247 249 249 249 252 255 256 258 262 267 272 277 282 288 294 299 301 302 302 301 302 302 301 299 297 293 287 281 275
128 109 95 74 58 43 35 22 2 352 351 346 341 342 341 336 332 333 332 330 328 327 325 322 319 314 311 306 300 294 288 280 274 270 267 268 271 274 274 269 262 255 249 249 248 237 233 242 243 240 239 238 238 243 245 244 245 246 245 246 251 253 254 257 261 267 273 280 287 293 298 301 303 304 305 305 304 303 301 298 295 292 288 282 277
129 109 89 66 45 24 15 10 358 351 350 342 336 334 332 326 325 328 328 328 328 326 322 321 319 315 313 309 303 299 294 288 284 278 271 267 266 267 269 270 270 269 259 250 248 243 238 238 234 234 239 240 240 242 243 241 242 242 242 244 248 250 254 259 264 270 278 285 291 295 299 301 303 304 305 306 306 305 304 301 297 293 289 284 279
128 103 76 47 24 8 353 347 344 341 336 334 332 330 327 324 324 326 327 327 327 324 321 320 318 316 312 306 301 297 292 286 285 282 278 274 270 266 265 265 265 267 263 251 244 242 237 230 229 236 240 240 240 241 238 236 238 239 240 242 245 249 255 262 270 277 283 288 292 297 300 302 304 305 305 306 306 305 303 301 299 296 293 290 286
125 90 48 19 360 346 337 336 334 329 326 329 330 327 325 325 325 324 324 324 323 320 316 316 317 315 308 302 298 293 289 285 284 283 281 278 275 271 270 267 263 260 258 253 244 238 231 226 232 239 239 238 240 237 233 234 237 237 237 240 245 253 260 268 275 281 286 291 295 299 302 303 304 304 304 303 302 300 298 295 293 292 290 288 286
107 24 356 348 341 331 327 326 323 323 326 329 327 323 321 321 321 321 321 321 320 316 314 314 314 311 306 301 297 292 288 286 284 283 281 278 275 272 271 269 264 255 251 249 243 235 229 227 235 239 237 237 236 231 230 234 235 235 237 241 248 257 265 273 280 286 291 296 299 301 302 303 302 301 300 298 296 295 293 291 289 287 285 283 279
331 332 334 330 326 323 318 316 317 318 320 318 314 312 313 315 317 319 320 320 318 316 316 315 312 307 304 300 297 294 289 284 280 278 277 276 275 273 270 266 260 252 245 242 238 232 229 229 234 237 235 234 230 227 229 232 233 234 236 241 251 262 271 279 285 291 295 298 299 300 301 301 299 299 298 295 295 294 291 289 288 287 286 284 279
322 321 323 321 319 319 313 310 311 310 308 308 306 305 306 308 311 314 315 315 313 312 314 313 308 303 300 298 296 294 289 282 276 273 271 272 273 272 269 263 256 248 241 239 235 228 226 229 232 233 232 229 225 224 226 226 227 230 233 241 256 268 277 283 288 293 296 298 299 299 299 298 297 297 295 293 293 294 291 289 287 285 284 282 279
316 313 314 313 309 309 308 305 305 305 305 304 302 299 299 298 301 305 307 307 305 307 309 305 299 296 295 295 293 289 285 280 275 271 269 267 267 267 264 259 251 242 237 238 233 226 227 232 235 234 230 226 221 219 220 220 223 230 235 243 257 267 275 283 289 293 294 295 297 299 300 299 298 298 297 294 294 294 293 290 286 284 281 278 277
312 309 307 308 308 309 309 308 307 306 306 304 300 297 294 292 294 297 298 297 299 303 304 299 295 295 294 291 289 285 281 276 273 270 268 266 266 264 258 251 246 241 238 235 228 226 231 236 237 231 225 220 216 214 214 218 225 233 241 250 262 271 279 284 288 290 290 292 297 301 302 303 303 302 300 297 296 296 295 292 287 282 278 276 276
312 308 304 306 307 307 307 307 307 306 305 304 300 295 292 291 294 295 294 296 299 299 297 294 293 293 291 289 286 282 278 275 271 269 268 267 266 263 256 248 238 231 230 228 227 233 238 236 230 222 214 210 209 209 211 218 227 238 250 261 271 278 283 287 289 291 292 295 298 298 297 298 299 299 299 300 300 300 297 293 287 280 277 277 277
308 307 306 305 303 302 302 303 303 303 302 301 298 293 290 291 292 291 292 296 298 297 294 293 290 287 286 285 280 275 272 270 268 268 267 265 263 260 253 241 231 228 231 233 234 239 237 225 214 206 200 198 200 203 209 220 235 250 262 270 277 282 286 290 293 295 297 298 296 292 289 286 287 290 295 299 301 300 297 292 286 280 279 280 278
307 306 307 306 303 301 300 300 300 299 297 295 292 288 287 288 287 288 292 296 296 294 294 292 286 281 281 280 275 270 267 266 265 264 262 260 258 252 243 239 240 242 242 239 237 235 224 208 196 190 189 189 192 201 214 229 244 259 270 278 284 287 290 293 296 298 299 297 293 292 290 287 289 295 301 303 303 301 296 290 286 284 284 283 279
305 304 304 303 300 298 296 294 294 293 291 290 288 285 285 285 285 287 291 292 291 291 292 289 282 278 277 275 272 268 265 262 261 260 259 256 249 242 242 247 247 242 235 231 225 213 199 187 179 176 179 185 193 208 226 242 257 271 282 288 291 292 294 296 298 299 300 298 296 296 295 295 299 304 304 302 300 297 293 289 288 286 283 281 278
297 297 296 295 292 291 289 288 286 286 286 285 284 282 281 281 283 287 290 290 289 289 288 283 277 275 274 273 270 266 262 260 260 258 254 245 238 239 245 245 237 228 222 210 192 182 177 172 170 172 180 192 206 221 237 255 270 281 288 291 294 296 299 301 303 305 305 302 299 299 301 303 306 306 304 303 302 300 298 297 294 290 287 282 276
292 291 290 288 286 285 285 283 281 283 284 283 281 279 277 279 283 285 286 285 285 283 279 275 272 270 269 269 267 263 260 259 257 251 241 233 234 237 235 227 217 209 197 182 171 168 169 170 171 175 183 196 213 230 249 266 276 284 290 293 297 303 308 311 313 315 315 312 309 310 313 314 313 311 310 309 307 305 306 306 302 298 292 284 275
290 289 288 287 286 285 283 282 282 283 284 283 280 275 275 279 282 282 281 280 280 278 275 271 268 267 266 264 262 260 258 255 247 234 224 226 232 228 218 208 196 182 172 166 163 162 164 168 173 175 180 191 204 221 271 300 304 305 306 311 316 321 323 325 326 325 323 320 317 317 318 317 315 315 314 311 307 307 310 310 308 304 296 286 278
289 290 289 288 286 285 284 283 284 286 286 284 280 277 279 283 282 280 280 280 278 276 271 268 267 266 264 260 256 253 248 237 226 218 217 223 223 210 192 178 168 162 159 157 156 158 162 166 167 163 163 164 153 129 110 323 316 318 320 324 327 330 331 331 328 323 319 315 313 314 315 314 313 313 313 311 310 312 311 307 302 298 291 282 275
289 289 288 287 286 284 285 286 287 288 288 285 283 283 285 283 281 282 284 283 279 274 269 266 264 260 256 250 244 237 231 225 220 218 213 200 182 167 157 153 153 153 152 151 151 152 152 149 144 140 138 132 127 124 109 344 336 336 335 334 333 333 333 329 324 319 316 316 315 314 313 311 309 307 307 307 306 303 300 295 291 288 283 277 272
290 289 288 286 284 284 286 287 288 290 289 287 287 288 285 283 285 289 289 284 279 273 267 261 255 248 243 237 228 222 220 214 199 177 157 144 141 141 141 142 144 145 143 143 143 141 138 137 136 135 130 126 122 104 44 14 2 353 346 342 340 338 335 331 327 323 321 321 320 315 308 307 307 305 304 304 302 300 297 294 291 287 283 279 276
289 289 287 285 285 285 285 286 288 288 287 287 288 287 285 288 293 294 292 286 280 273 263 250 240 234 230 224 212 196 179 162 148 140 136 134 133 134 135 135 137 137 136 137 137 135 133 132 127 120 112 104 88 61 35 16 6 359 353 348 346 343 340 336 331 327 324 322 320 313 308 307 307 306 305 303 303 303 301 298 295 291 285 281 278
287 286 285 284 284 284 284 286 287 286 286 287 286 284 287 296 303 301 297 288 272 255 233 212 200 192 182 170 158 147 139 135 134 135 135 132 130 130 130 130 131 131 130 129 127 123 118 114 107 99 90 79 63 44 27 16 10 2 355 352 349 346 345 341 335 333 333 329 318 308 307 307 305 305 305 304 304 304 302 300 298 294 289 284 279
Height
1501 1502 1504 1507 1508 1510 1512 1513 1515 1516 1518 1519 1520 1522 1523 1524 1525 1525 1526 1527 1527 1528 1529 1530 1531 1531 1532 1532 1533 1533 1534 1534 1534 1534 1534 1534 1534 1533 1533 1533 1533 1533 1533 1534 1534 1533 1534 1534 1534 1534 1534 1535 1535 1536 1536 1537 1537 1537 1538 1538 1539 1539 1541 1542 1543 1544 1544 1545 1546 1547 1547 1547 1548 1548 1549 1550 1551 1552 1553 1554 1555 1556 1556 1556 1556
1500 1500 1502 1506 1507 1508 1510 1511 1513 1515 1516 1517 1519 1520 1522 1523 1524 1525 1526 1527 1527 1528 1529 1529 1530 1531 1532 1532 1533 1534 1534 1534 1534 1534 1534 1533 1533 1533 1533 1533 1533 1532 1533 1533 1533 1534 1534 1534 1534 1535 1535 1535 1535 1535 1536 1536 1536 1536 1537 1537 1537 1538 1539 1541 1542 1543 1543 1544 1545 1545 1546 1546 1546 1547 1547 1548 1549 1551 1551 1552 1553 1554 1554 1555 1555
1498 1499 1501 1503 1505 1506 1508 1509 1511 1513 1514 1516 1517 1519 1520 1522 1523 1524 1525 1526 1526 1527 1528 1529 1529 1530 1531 1532 1532 1533 1533 1534 1534 1534 1534 1534 1533 1533 1533 1533 1533 1533 1533 1533 1534 1534 1534 1535 1535 1535 1535 1535 1535 1535 1535 1536 1536 1536 1536 1537 1537 1537 1538 1539 1540 1541 1541 1543 1544 1544 1544 1545 1546 1546 1546 1547 1547 1548 1550 1550 1551 1552 1553 1554 1554
1496 1497 1499 1500 1502 1503 1505 1506 1508 1510 1512 1514 1515 1517 1519 1520 1522 1523 1524 1525 1526 1526 1527 1528 1528 1529 1530 1531 1531 1532 1533 1533 1534 1534 1534 1534 1534 1533 1533 1533 1533 1533 1533 1534 1534 1534 1534 1535 1535 1535 1535 1535 1536 1535 1536 1536 1536 1536 1536 1536 1536 1536 1537 1538 1539 1539 1540 1541 1543 1543 1543 1544 1544 1545 1546 1546 1546 1547 1548 1549 1550 1551 1551 1552 1552
1495 1496 1496 1497 1498 1500 1501 1504 1505 1508 1510 1511 1513 1515 1517 1519 1521 1522 1524 1525 1525 1526 1526 1527 1528 1528 1529 1530 1531 1532 1532 1533 1534 1534 1534 1534 1534 1534 1533 1533 1533 1533 1534 1534 1534 1534 1534 1534 1535 1535 1535 1535 1536 1536 1536 1536 1536 1536 1536 1536 1536 1536 1537 1537 1538 1538 1539 1540 1541 1542 1542 1543 1543 1544 1545 1545 1545 1546 1546 1547 1549 1549 1550 1550 1551
1493 1494 1494 1494 1495 1497 1499 1501 1502 1505 1507 1509 1511 1513 1515 1518 1520 1521 1522 1523 1524 1525 1526 1526 1527 1528 1529 1530 1531 1532 1533 1534 1534 1534 1535 1535 1534 1534 1534 1534 1534 1534 1534 1534 1534 1534 1534 1534 1534 1535 1535 1535 1535 1536 1536 1536 1536 1536 1536 1536 1536 1536 1536 1537 1537 1538 1538 1539 1540 1540 1541 1542 1542 1543 1544 1544 1544 1544 1544 1545 1546 1546 1547 1549 1549
1490 1491 1492 1493 1493 1494 1495 1497 1499 1502 1505 1507 1509 1511 1514 1516 1518 1519 1521 1522 1523 1524 1525 1526 1526 1527 1529 1530 1531 1532 1533 1534 1534 1534 1535 1535 1535 1534 1534 1534 1534 1534 1534 1534 1534 1534 1534 1534 1534 1535 1535 1535 1535 1535 1535 1535 1535 1535 1535 1536 1536 1536 1537 1537 1537 1538 1538 1538 1538 1539 1539 1540 1541 1541 1542 1543 1543 1543 1543 1543 1544 1544 1546 1546 1547
1488 1489 1490 1491 1492 1492 1492 1494 1496 1500 1503 1505 1507 1509 1512 1514 1516 1518 1520 1521 1522 1523 1524 1525 1526 1527 1528 1529 1530 1532 1533 1533 1533 1534 1535 1535 1535 1535 1535 1535 1535 1535 1535 1534 1534 1534 1534 1534 1534 1534 1535 1535 1535 1535 1534 1534 1534 1534 1534 1535 1535 1536 1536 1537 1537 1538 1538 1537 1538 1538 1538 1539 1540 1540 1540 1541 1542 1542 1542 1543 1543 1544 1544 1544 1544
1486 1486 1487 1488 1489 1489 1490 1491 1494 1498 1501 1502 1504 1507 1509 1512 1514 1516 1518 1520 1521 1522 1523 1524 1525 1526 1528 1529 1530 1531 1532 1532 1533 1534 1534 1535 1535 1535 1535 1535 1535 1535 1535 1535 1535 1535 1535 1535 1535 1535 1535 1535 1535 1535 1535 1534 1534 1534 1534 1535 1535 1535 1535 1536 1537 1538 1538 1538 1538 1538 1538 1539 1540 1540 1540 1540 1541 1541 1542 1542 1542 1542 1542 1542 1542
1484 1484 1484 1485 1486 1487 1488 1489 1490 1494 1498 1500 1502 1505 1507 1509 1512 1514 1516 1518 1519 1521 1522 1523 1525 1526 1527 1528 1529 1530 1531 1532 1533 1533 1534 1534 1535 1535 1535 1535 1535 1536 1536 1536 1536 1536 1535 1535 1535 1535 1535 1536 1536 1535 1535 1535 1535 1535 1535 1535 1535 1535 1536 1536 1536 1537 1537 1537 1538 1538 1539 1540 1540 1540 1540 1540 1540 1541 1541 1541 1541 1540 1540 1540 1540
1483 1482 1482 1482 1483 1484 1485 1486 1488 1490 1494 1498 1500 1502 1505 1507 1510 1512 1515 1517 1518 1519 1521 1522 1523 1525 1526 1527 1528 1529 1530 1531 1532 1532 1533 1534 1534 1535 1535 1535 1536 1536 1536 1536 1536 1536 1536 1536 1536 1536 1536 1536 1536 1536 1535 1535 1535 1535 1535 1535 1535 1536 1536 1536 1536 1536 1536 1537 1537 1538 1538 1538 1539 1539 1540 1540 1540 1541 1541 1541 1541 1540 1540 1539 1538
1482 1481 1480 1479 1480 1481 1482 1484 1485 1487 1490 1494 1497 1499 1502 1505 1508 1510 1513 1515 1516 1518 1519 1521 1522 1523 1525 1526 1527 1528 1529 1530 1531 1532 1533 1533 1534 1534 1535 1535 1535 1536 1536 1536 1536 1536 1536 1536 1536 1536 1536 1536 1536 1536 1536 1536 1536 1536 1536 1536 1536 1536 1536 1536 1536 1536 1536 1536 1536 1537 1537 1537 1537 1538 1538 1538 1539 1539 1539 1539 1540 1540 1539 1538 1538
1481 1480 1479 1477 1478 1480 1480 1482 1483 1485 1488 1492 1495 1497 1500 1503 1506 1508 1510 1513 1514 1516 1518 1519 1521 1522 1524 1525 1526 1527 1528 1529 1530 1531 1532 1533 1534 1534 1535 1535 1535 1535 1536 1536 1536 1536 1536 1537 1537 1537 1537 1537 1537 1537 1537 1536 1536 1536 1536 1536 1536 1536 1536 1536 1536 1536 1536 1536 1536 1536 1536 1536 1536 1536 1537 1537 1537 1537 1538 1538 1538 1538 1537 1537 1537
1480 1479 1478 1477 1478 1479 1480 1481 1482 1483 1486 1490 1492 1495 1497 1500 1503 1506 1508 1511 1512 1514 1516 1518 1519 1521 1522 1524 1525 1526 1527 1529 1529 1530 1531 1532 1533 1533 1534 1535 1535 1535 1535 1536 1536 1536 1536 1537 1537 1537 1537 1537 1537 1537 1537 1537 1536 1536 1536 1536 1536 1536 1536 1535 1536 1535 1535 1535 1535 1535 1536 1536 1536 1535 1536 1536 1536 1536 1536 1537 1537 1536 1536 1535 1535
1480 1479 1478 1478 1478 1479 1480 1481 1482 1482 1485 1488 1490 1493 1496 1498 1501 1504 1507 1508 1511 1512 1514 1516 1518 1520 1521 1522 1524 1525 1526 1528 1529 1530 1530 1531 1532 1533 1533 1534 1535 1535 1535 1535 1535 1536 1536 1536 1536 1536 1536 1536 1536 1536 1536 1536 1536 1536 1536 1536 1536 1535 1535 1535 1535 1535 1535 1535 1535 1535 1535 1535 1535 1535 1535 1535 1535 1534 1534 1535 1535 1535 1534 1534 1534
1480 1479 1479 1479 1479 1479 1480 1480 1481 1483 1484 1487 1489 1492 1494 1497 1500 1503 1505 1507 1509 1511 1513 1515 1517 1518 1519 1521 1522 1524 1525 1526 1527 1528 1529 1530 1531 1532 1532 1533 1534 1534 1534 1534 1535 1535 1535 1536 1536 1536 1536 1536 1536 1536 1536 1536 1536 1536 1536 1536 1535 1535 1535 1535 1535 1535 1535 1535 1535 1535 1535 1535 1534 1534 1534 1534 1534 1533 1533 1533 1532 1533 1533 1533 1532
1481 1480 1480 1480 1479 1479 1480 1480 1482 1483 1485 1487 1489 1491 1494 1496 1499 1501 1504 1506 1508 1511 1512 1514 1515 1517 1518 1519 1521 1522 1523 1525 1526 1527 1528 1529 1530 1530 1531 1532 1533 1533 1533 1533 1534 1534 1535 1535 1535 1535 1535 1535 1535 1535 1535 1535 1535 1535 1535 1535 1535 1535 1535 1535 1534 1534 1534 1534 1534 1534 1534 1534 1534 1533 1533 1533 1532 1532 1532 1532 1531 1531 1531 1531 1531
1484 1481 1481 1480 1479 1480 1480 1481 1483 1484 1485 1487 1489 1491 1493 1495 1498 1500 1503 1505 1507 1509 1511 1512 1514 1515 1516 1517 1519 1520 1522 1523 1524 1525 1526 1527 1528 1529 1530 1530 1531 1532 1532 1532 1532 1533 1534 1534 1534 1534 1535 1535 1535 1535 1535 1535 1535 1535 1535 1535 1535 1535 1535 1534 1534 1534 1534 1533 1533 1533 1533 1533 1533 1532 1532 1532 1532 1531 1531 1531 1531 1530 1530 1530 1530
1486 1484 1483 1482 1481 1480 1480 1482 1483 1484 1485 1487 1488 1490 1492 1494 1497 1499 1501 1503 1506 1507 1508 1510 1512 1513 1514 1516 1517 1518 1520 1521 1522 1523 1524 1525 1526 1527 1528 1528 1529 1530 1530 1530 1531 1531 1532 1533 1533 1533 1533 1534 1534 1534 1534 1534 1534 1534 1534 1534 1534 1534 1534 1534 1534 1533 1533 1533 1533 1532 1532 1532 1531 1531 1531 1530 1530 1530 1530 1530 1530 1529 1529 1528 1528
1487 1486 1486 1484 1483 1482 1482 1482 1482 1483 1485 1486 1488 1489 1491 1493 1495 1498 1500 1502 1504 1505 1506 1508 1510 1511 1512 1513 1515 1516 1517 1519 1520 1521 1522 1522 1524 1524 1525 1526 1527 1528 1529 1529 1529 1530 1531 1531 1532 1532 1532 1532 1532 1533 1533 1533 1533 1533 1533 1533 1532 1533 1533 1533 1533 1532 1532 1532 1532 1531 1531 1531 1530 1530 1530 1529 1529 1528 1528 1528 1528 1528 1528 1527 1526
1489 1489 1488 1486 1486 1484 1484 1484 1483 1484 1485 1486 1488 1488 1489 1492 1494 1496 1498 1500 1502 1503 1504 1506 1508 1509 1510 1511 1512 1514 1515 1516 1517 1518 1519 1520 1521 1522 1523 1524 1524 1526 1526 1527 1528 1528 1529 1530 1530 1531 1531 1531 1531 1531 1531 1532 1532 1532 1532 1532 1532 1532 1532 1531 1531 1531 1530 1530 1530 1530 1530 1529 1529 1529 1529 1529 1528 1527 1527 1526 1526 1526 1526 1525 1525
1490 1490 1489 1488 1488 1487 1486 1486 1486 1486 1487 1488 1489 1489 1490 1492 1494 1495 1496 1497 1499 1500 1502 1503 1505 1506 1507 1508 1510 1511 1512 1513 1514 1516 1517 1518 1519 1519 1520 1521 1522 1523 1524 1525 1526 1527 1528 1528 1529 1529 1530 1530 1530 1530 1530 1530 1530 1530 1530 1530 1530 1531 1531 1531 1530 1530 1529 1529 1529 1529 1529 1528 1527 1527 1527 1527 1527 1527 1526 1526 1526 1525 1525 1524 1523
1492 1491 1491 1490 1490 1490 1489 1489 1488 1488 1488 1489 1490 1490 1491 1493 1494 1495 1495 1496 1498 1499 1499 1500 1502 1504 1504 1505 1506 1508 1509 1509 1511 1512 1514 1515 1516 1517 1518 1519 1520 1521 1521 1523 1524 1524 1525 1527 1527 1528 1528 1528 1528 1528 1528 1528 1528 1528 1528 1528 1528 1529 1529 1529 1529 1529 1529 1528 1528 1527 1527 1527 1526 1526 1525 1525 1525 1525 1525 1525 1525 1524 1523 1522 1521
1493 1493 1492 1492 1492 1492 1492 1491 1491 1491 1491 1491 1491 1492 1492 1493 1494 1495 1495 1496 1497 1498 1499 1499 1501 1502 1502 1502 1503 1505 1506 1506 1507 1509 1510 1511 1513 1514 1514 1515 1517 1518 1518 1520 1521 1522 1523 1524 1524 1525 1525 1525 1526 1526 1526 1526 1527 1526 1526 1526 1526 1527 1527 1527 1527 1527 1527 1527 1526 1526 1526 1525 1525 1524 1524 1524 1524 1523 1523 1523 1523 1522 1521 1520 1519
1494 1494 1493 1493 1493 1493 1493 1493 1493 1493 1493 1493 1493 1493 1493 1493 1494 1495 1495 1495 1496 1498 1499 1500 1501 1501 1500 1500 1501 1503 1504 1503 1504 1505 1507 1508 1509 1510 1511 1511 1513 1514 1515 1516 1517 1518 1520 1521 1521 1522 1522 1523 1523 1523 1524 1524 1524 1524 1524 1524 1524 1524 1525 1525 1525 1525 1525 1525 1524 1524 1524 1524 1523 1523 1522 1522 1522 1521 1521 1520 1520 1520 1520 1519 1517
1494 1494 1494 1494 1494 1494 1494 1494 1494 1494 1495 1495 1495 1495 1495 1495 1495 1496 1496 1496 1496 1497 1498 1498 1498 1498 1498 1498 1499 1501 1502 1501 1501 1503 1504 1504 1506 1507 1507 1508 1509 1510 1511 1511 1512 1514 1515 1516 1517 1518 1519 1519 1520 1520 1521 1522 1522 1522 1522 1522 1522 1522 1522 1522 1522 1522 1522 1522 1522 1522 1522 1521 1521 1521 1520 1520 1519 1519 1518 1518 1517 1517 1517 1516 1515
1494 1494 1494 1494 1494 1494 1494 1494 1495 1495 1495 1495 1496 1496 1496 1496 1497 1497 1497 1497 1497 1497 1497 1496 1496 1497 1497 1498 1499 1499 1499 1499 1500 1501 1501 1501 1502 1504 1504 1505 1506 1506 1506 1506 1508 1510 1511 1512 1513 1514 1515 1516 1517 1518 1519 1520 1520 1520 1520 1520 1520 1520 1520 1519 1519 1519 1519 1519 1519 1519 1519 1519 1518 1518 1517 1517 1516 1516 1515 1514 1514 1513 1513 1513 1512
1493 1493 1494 1494 1494 1495 1495 1495 1495 1495 1496 1496 1496 1496 1496 1497 1497 1497 1497 1496 1496 1496 1496 1496 1496 1497 1497 1498 1498 1498 1498 1498 1499 1498 1498 1498 1499 1500 1501 1502 1503 1503 1503 1503 1505 1506 1507 1508 1508 1509 1510 1512 1513 1515 1516 1517 1518 1518 1518 1517 1517 1517 1517 1517 1517 1517 1517 1517 1517 1517 1516 1516 1516 1515 1515 1514 1513 1513 1512 1511 1511 1511 1510 1510 1509
1493 1493 1493 1493 1494 1494 1494 1495 1495 1495 1495 1495 1496 1496 1496 1496 1496 1496 1496 1495 1495 1495 1495 1495 1496 1497 1497 1497 1497 1497 1497 1497 1496 1496 1496 1496 1496 1497 1498 1498 1499 1499 1500 1500 1500 1501 1502 1503 1504 1505 1507 1507 1507 1508 1510 1512 1514 1514 1515 1515 1514 1515 1515 1515 1515 1515 1515 1515 1515 1514 1514 1514 1514 1513 1512 1511 1510 1510 1509 1508 1508 1508 1507 1506 1506
1492 1493 1493 1493 1493 1493 1494 1494 1494 1494 1494 1494 1494 1495 1495 1495 1494 1494 1494 1494 1494 1494 1494 1494 1495 1495 1495 1495 1495 1495 1495 1494 1494 1494 1494 1494 1494 1494 1494 1495 1496 1496 1496 1497 1497 1498 1499 1499 1500 1502 1503 1503 1503 1503 1505 1507 1510 1511 1512 1512 1511 1512 1512 1512 1513 1512 1512 1512 1512 1512 1511 1510 1510 1510 1509 1508 1508 1507 1506 1505 1504 1504 1503 1503 1502
1492 1493 1493 1493 1493 1493 1493 1493 1493 1494 1494 1493 1493 1493 1494 1494 1493 1493 1493 1493 1493 1493 1492 1493 1493 1493 1493 1493 1492 1492 1492 1492 1492 1492 1492 1492 1492 1492 1492 1492 1493 1493 1493 1493 1493 1495 1496 1496 1496 1497 1498 1500 1500 1500 1501 1504 1506 1508 1509 1509 1509 1509 1509 1510 1510 1510 1510 1509 1509 1509 1508 1507 1506 1506 1505 1504 1503 1502 1502 1501 1500 1499 1499 1498 1498
1491 1492 1492 1492 1493 1493 1493 1493 1493 1494 1494 1493 1492 1492 1492 1492 1492 1492 1492 1491 1491 1491 1491 1491 1491 1491 1491 1490 1490 1489 1489 1489 1489 1489 1489 1490 1490 1490 1490 1490 1490 1490 1490 1489 1490 1491 1492 1493 1493 1494 1495 1496 1496 1497 1498 1501 1502 1504 1505 1506 1506 1506 1506 1506 1507 1507 1507 1507 1506 1506 1505 1504 1503 1503 1502 1501 1499 1498 1496 1496 1495 1495 1494 1494 1493
1491 1491 1492 1492 1492 1492 1492 1492 1492 1493 1493 1492 1491 1491 1491 1490 1490 1490 1490 1490 1490 1490 1489 1489 1489 1489 1488 1487 1487 1487 1486 1486 1486 1486 1486 1486 1487 1487 1487 1488 1488 1488 1487 1487 1487 1488 1488 1490 1490 1490 1491 1492 1492 1494 1496 1497 1499 1500 1502 1503 1503 1503 1503 1504 1503 1504 1504 1503 1503 1503 1502 1501 1500 1499 1498 1498 1496 1494 1492 1491 1489 1489 1488 1487 1487
1490 1490 1491 1491 1491 1492 1492 1491 1491 1491 1490 1490 1489 1489 1489 1489 1489 1489 1489 1489 1488 1488 1488 1487 1487 1486 1486 1485 1484 1484 1483 1483 1483 1483 1483 1483 1483 1483 1484 1484 1484 1484 1484 1484 1484 1485 1485 1486 1486 1487 1488 1488 1489 1491 1493 1494 1496 1497 1499 1500 1500 1500 1500 1501 1501 1501 1501 1500 1500 1500 1499 1498 1497 1496 1495 1494 1493 1491 1489 1488 1486 1484 1483 1482 1481
1489 1490 1490 1490 1491 1491 1490 1490 1490 1489 1488 1488 1488 1487 1487 1487 1487 1486 1486 1486 1486 1486 1485 1485 1484 1483 1483 1482 1481 1481 1481 1480 1480 1480 1480 1480 1480 1480 1480 1480 1481 1481 1481 1481 1481 1482 1482 1483 1483 1484 1485 1485 1486 1488 1490 1491 1493 1495 1496 1497 1497 1497 1498 1498 1498 1498 1497 1497 1497 1496 1495 1495 1494 1493 1491 1490 1489 1488 1486 1484 1482 1481 1479 1479 1478
1488 1488 1489 1489 1489 1489 1489 1489 1488 1488 1488 1488 1487 1486 1486 1485 1485 1484 1484 1483 1483 1482 1482 1482 1481 1480 1479 1479 1478 1478 1478 1477 1477 1477 1477 1476 1477 1477 1477 1477 1477 1477 1478 1478 1479 1479 1479 1479 1480 1481 1481 1481 1483 1486 1487 1489 1491 1492 1494 1495 1494 1494 1495 1495 1495 1494 1494 1493 1493 1492 1492 1491 1490 1489 1487 1485 1484 1483 1481 1479 1478 1476 1475 1473 1472
1487 1487 1487 1487 1487 1487 1487 1487 1486 1486 1486 1486 1485 1485 1484 1483 1483 1482 1482 1481 1481 1480 1479 1479 1478 1477 1477 1476 1475 1475 1475 1474 1474 1474 1474 1473 1473 1473 1474 1474 1474 1474 1475 1475 1476 1476 1475 1476 1476 1476 1477 1478 1481 1483 1484 1486 1488 1489 1491 1492 1492 1492 1493 1492 1492 1491 1490 1490 1489 1488 1488 1487 1486 1485 1483 1481 1479 1478 1476 1475 1473 1471 1470 1468 1467
1485 1485 1485 1486 1486 1485 1485 1485 1485 1484 1484 1484 1483 1483 1482 1482 1481 1480 1480 1479 1479 1478 1477 1477 1476 1475 1474 1473 1472 1472 1471 1471 1471 1471 1471 1470 1470 1470 1470 1470 1471 1471 1472 1472 1473 1473 1472 1472 1473 1473 1474 1476 1478 1480 1482 1484 1485 1487 1488 1489 1490 1491 1491 1490 1490 1489 1488 1487 1485 1484 1483 1482 1481 1480 1478 1476 1475 1474 1472 1470 1468 1466 1465 1463 1463
1483 1483 1483 1483 1483 1483 1483 1482 1482 1481 1481 1481 1481 1480 1480 1479 1478 1478 1477 1477 1476 1475 1474 1474 1473 1472 1471 1470 1469 1468 1468 1468 1467 1467 1467 1467 1467 1467 1467 1467 1468 1469 1469 1470 1470 1470 1469 1469 1470 1471 1472 1475 1477 1479 1480 1482 1483 1484 1485 1487 1488 1488 1488 1488 1488 1487 1486 1484 1483 1480 1478 1476 1475 1474 1473 1472 1471 1470 1468 1466 1464 1462 1460 1458 1458
1481 1481 1481 1481 1480 1480 1480 1479 1479 1479 1478 1478 1478 1477 1476 1476 1475 1475 1474 1473 1473 1472 1471 1470 1469 1468 1467 1467 1466 1465 1464 1464 1464 1464 1464 1464 1463 1463 1463 1464 1464 1465 1466 1466 1466 1466 1466 1467 1468 1469 1472 1474 1476 1478 1479 1480 1481 1483 1484 1485 1486 1486 1486 1485 1484 1484 1482 1481 1480 1478 1476 1474 1470 1468 1468 1467 1466 1465 1463 1461 1459 1457 1455 1454 1454
1479 1478 1478 1478 1477 1477 1477 1476 1476 1476 1475 1475 1475 1474 1473 1472 1472 1471 1470 1469 1469 1468 1467 1466 1465 1465 1464 1463 1463 1462 1461 1461 1461 1460 1460 1460 1460 1460 1460 1460 1460 1461 1462 1463 1463 1464 1464 1465 1466 1468 1471 1473 1475 1476 1477 1479 1480 1481 1482 1483 1483 1483 1482 1482 1481 1480 1479 1478 1477 1476 1475 1472 1468 1465 1464 1463 1462 1460 1458 1456 1454 1452 1450 1449 1449
1476 1475 1475 1474 1474 1474 1473 1473 1473 1473 1473 1473 1472 1471 1470 1469 1468 1467 1466 1466 1465 1464 1463 1462 1461 1461 1460 1459 1459 1458 1458 1457 1457 1457 1457 1457 1457 1457 1457 1456 1456 1457 1459 1460 1461 1461 1462 1464 1466 1468 1470 1471 1473 1475 1476 1478 1479 1479 1480 1481 1481 1480 1479 1478 1477 1476 1475 1475 1474 1472 1471 1468 1464 1461 1460 1458 1456 1454 1452 1450 1448 1446 1445 1444 1443
1473 1473 1472 1472 1471 1470 1470 1470 1471 1471 1470 1470 1469 1468 1467 1466 1464 1464 1463 1462 1461 1459 1458 1457 1457 1456 1456 1455 1455 1454 1454 1453 1453 1453 1453 1453 1453 1453 1453 1452 1453 1454 1456 1458 1459 1460 1462 1464 1466 1467 1469 1471 1472 1474 1476 1477 1478 1478 1478 1478 1478 1477 1476 1475 1474 1473 1472 1470 1469 1467 1465 1462 1459 1457 1455 1453 1451 1449 1447 1445 1443 1442 1440 1439 1438
1472 1472 1471 1470 1469 1468 1468 1468 1468 1468 1467 1466 1465 1464 1463 1462 1461 1460 1459 1457 1456 1455 1454 1453 1453 1452 1451 1451 1450 1450 1450 1450 1450 1450 1449 1449 1449 1449 1449 1449 1451 1452 1454 1455 1457 1459 1462 1464 1466 1467 1469 1471 1472 1474 1475 1476 1476 1477 1476 1476 1476 1475 1474 1472 1471 1469 1467 1466 1464 1462 1459 1457 1454 1452 1450 1447 1445 1443 1441 1440 1438 1437 1436 1434 1433
1470 1469 1468 1468 1466 1466 1465 1465 1464 1464 1463 1462 1461 1460 1459 1458 1457 1456 1455 1453 1452 1451 1450 1449 1448 1447 1447 1447 1446 1446 1446 1446 1446 1446 1445 1445 1445 1445 1446 1447 1448 1449 1451 1454 1457 1459 1462 1464 1466 1468 1470 1471 1472 1474 1475 1475 1475 1475 1474 1474 1474 1473 1471 1469 1467 1465 1463 1461 1458 1456 1453 1451 1448 1446 1444 1441 1439 1438 1436 1435 1434 1432 1431 1430 1428
1466 1466 1466 1465 1463 1463 1462 1461 1460 1460 1459 1458 1457 1456 1455 1454 1453 1452 1451 1449 1448 1447 1445 1444 1443 1442 1442 1442 1442 1442 1442 1442 1441 1441 1441 1441 1442 1442 1444 1445 1446 1448 1451 1454 1457 1460 1463 1464 1466 1468 1470 1471 1472 1473 1473 1473 1473 1473 1472 1472 1471 1469 1467 1465 1463 1461 1458 1456 1453 1451 1448 1445 1443 1441 1439 1437 1436 1434 1433 1431 1430 1429 1427 1426 1425
1463 1463 1462 1461 1460 1459 1459 1458 1457 1456 1455 1454 1453 1452 1451 1450 1449 1447 1446 1445 1443 1441 1440 1438 1437 1437 1437 1437 1437 1437 1437 1437 1437 1437 1438 1438 1439 1440 1442 1444 1446 1449 1451 1455 1458 1461 1463 1465 1466 1468 1470 1471 1472 1472 1473 1472 1472 1471 1471 1470 1468 1466 1464 1462 1460 1458 1455 1453 1450 1447 1445 1442 1440 1438 1436 1435 1433 1431 1430 1428 1427 1426 1425 1424 1422
1460 1459 1459 1457 1457 1456 1455 1454 1453 1453 1452 1451 1449 1448 1447 1445 1444 1443 1441 1439 1437 1435 1434 1432 1432 1432 1432 1432 1432 1432 1433 1433 1434 1435 1436 1436 1438 1440 1443 1446 1449 1451 1453 1456 1459 1461 1464 1466 1467 1468 1470 1471 1471 1472 1471 1471 1470 1470 1469 1467 1466 1464 1462 1460 1458 1455 1453 1450 1447 1444 1442 1440 1438 1437 1435 1433 1431 1430 1428 1427 1425 1424 1423 1421 1420
1456 1456 1455 1454 1453 1452 1451 1451 1450 1449 1448 1447 1446 1445 1443 1441 1439 1438 1436 1433 1431 1429 1427 1426 1426 1426 1426 1427 1428 1429 1430 1431 1432 1434 1436 1438 1441 1444 1446 1449 1452 1454 1455 1457 1460 1462 1464 1465 1467 1468 1469 1470 1470 1470 1469 1469 1468 1467 1466 1464 1463 1461 1459 1457 1455 1452 1449 1446 1444 1442 1440 1439 1437 1435 1433 1431 1429 1428 1426 1424 1422 1421 1419 1418 1416
1453 1452 1451 1450 1449 1448 1448 1447 1446 1446 1445 1443 1442 1441 1439 1437 1435 1432 1429 1427 1424 1423 1422 1421 1421 1422 1422 1423 1425 1426 1428 1430 1432 1434 1437 1441 1444 1448 1450 1451 1453 1455 1457 1459 1461 1462 1464 1465 1466 1467 1467 1467 1468 1467 1467 1467 1466 1465 1463 1462 1460 1459 1456 1454 1451 1449 1446 1443 1441 1440 1439 1437 1435 1433 1431 1429 1427 1425 1422 1421 1419 1417 1416 1414 1412
1449 1448 1447 1446 1445 1445 1444 1443 1443 1442 1442 1440 1439 1437 1435 1434 1431 1428 1425 1423 1421 1420 1419 1419 1419 1420 1421 1423 1425 1427 1429 1432 1434 1437 1439 1442 1446 1449 1451 1453 1455 1457 1459 1461 1462 1463 1464 1465 1465 1465 1466 1466 1466 1466 1466 1465 1464 1463 1461 1460 1458 1457 1454 1452 1449 1446 1444 1442 1440 1439 1437 1435 1433 1431 1429 1426 1424 1422 1419 1417 1415 1413 1411 1410 1408